This demonstration page uses our WeatherBlox Daily Observations layout. Learn more.

Left ArrowRight Arrow

39.29038, -76.61219

Hourly Observations for March 28, 2015

Temp ( °F °C ) Dew Point ( °F °C ) Humidity (%) Winds ( mph kmh ) Pressure ( in mb ) Visibility ( mi km ) Precip ( " mm )
12:54 am 00:54 undefined 41 5 22 -5.6 47 47 undefined N/A 29.82 1010 N/A 0.00 0.00
1:54 am 01:54 undefined 39 3.9 20 -6.7 46 46 undefined N/A 29.83 1010 N/A 0.00 0.00
2:54 am 02:54 undefined 38 3.3 19 -7.2 46 46 undefined N/A 29.83 1010 N/A 0.00 0.00
3:54 am 03:54 undefined 36 2.2 17 -8.3 46 46 undefined N/A 29.84 1011 N/A 0.00 0.00
4:54 am 04:54 undefined 35 1.7 16 -8.9 46 46 undefined N/A 29.84 1011 N/A 0.00 0.00
5:54 am 05:54 undefined 35 1.7 17 -8.3 48 48 undefined N/A 29.87 1012 N/A 0.00 0.00
6:54 am 06:54 undefined 33 0.6 16 -8.9 49 49 undefined N/A 29.88 1012 N/A 0.00 0.00
7:54 am 07:54 undefined 32 0 14 -10 47 47 undefined N/A 29.93 1014 N/A 0.00 0.00
8:54 am 08:54 undefined 31 -0.6 16 -8.9 54 54 undefined N/A 29.95 1014 N/A 0.00 0.00
9:54 am 09:54 undefined 30 -1.1 13 -10.6 49 49 undefined N/A 29.97 1015 N/A 0.00 0.00
10:54 am 10:54 undefined 31 -0.6 12 -11.1 45 45 undefined N/A 29.99 1016 N/A 0.00 0.00
11:54 am 11:54 undefined 32 0 14 -10 47 47 undefined N/A 30.00 1016 N/A 0.00 0.00
12:54 pm 12:54 undefined 34 1.1 14 -10 44 44 undefined N/A 29.99 1016 N/A 0.00 0.00
1:54 pm 13:54 undefined 34 1.1 13 -10.6 42 42 undefined N/A 29.99 1016 N/A 0.00 0.00
2:54 pm 14:54 undefined 35 1.7 14 -10 42 42 undefined N/A 30.00 1016 N/A 0.00 0.00
3:54 pm 15:54 undefined 33 0.6 16 -8.9 49 49 undefined N/A 30.01 1016 N/A 0.00 0.00
4:54 pm 16:54 undefined 35 1.7 11 -11.7 37 37 undefined N/A 30.05 1018 N/A 0.00 0.00
5:54 pm 17:54 undefined 34 1.1 9 -12.8 35 35 undefined N/A 30.05 1018 N/A 0.00 0.00
6:54 pm 18:54 undefined 33 0.6 7 -13.9 33 33 undefined N/A 30.08 1019 N/A 0.00 0.00
7:54 pm 19:54 undefined 32 0 7 -13.9 35 35 undefined N/A 30.12 1020 N/A 0.00 0.00
8:54 pm 20:54 undefined 31 -0.6 7 -13.9 36 36 undefined N/A 30.16 1021 N/A 0.00 0.00
9:54 pm 21:54 undefined 31 -0.6 8 -13.3 38 38 undefined N/A 30.18 1022 N/A 0.00 0.00
10:54 pm 22:54 undefined 30 -1.1 8 -13.3 39 39 undefined N/A 30.20 1023 N/A 0.00 0.00
11:54 pm 23:54 undefined 30 -1.1 7 -13.9 38 38 undefined N/A 30.21 1023 N/A 0.00 0.00

Powered by AerisWeather